| time (UTC) | temp F | wind direction | speed MPH | gust MPH | rain 1hr in | rain 24hr in | rain mn in | humidity % | barometer mb |
| 20260505032503 | 72 | 0 | 2.0 | 3.0 | 0.00 | 0.00 | 0.00 | 73 | 1016.2 |
| 20260505032004 | 72 | 0 | 0.0 | 3.0 | 0.00 | 0.00 | 0.00 | 73 | 1016.3 |
| 20260505031504 | 72 | 0 | 0.0 | 3.0 | 0.00 | 0.00 | 0.00 | 73 | 1016.4 |
| 20260505031003 | 72 | 0 | 1.0 | 3.0 | 0.00 | 0.00 | 0.00 | 73 | 1016.5 |
| 20260505030504 | 72 | 0 | 0.0 | 2.0 | 0.00 | 0.00 | 0.00 | 73 | 1016.5 |
| 20260505030006 | 73 | 0 | 0.0 | 3.0 | 0.00 | 0.00 | 0.00 | 73 | 1016.5 |
| 20260505025504 | 73 | 0 | 1.0 | 3.0 | 0.00 | 0.00 | 0.00 | 73 | 1016.4 |
| 20260505025003 | 73 | 0 | 2.0 | 3.0 | 0.00 | 0.00 | 0.00 | 73 | 1016.4 |
| 20260505024503 | 73 | 0 | 1.0 | 3.0 | 0.00 | 0.00 | 0.00 | 72 | 1016.4 |
| 20260505024004 | 73 | 0 | 1.0 | 3.0 | 0.00 | 0.00 | 0.00 | 72 | 1016.3 |
| 20260505023503 | 73 | 0 | 1.0 | 3.0 | 0.00 | 0.00 | 0.00 | 72 | 1016.2 |
| 20260505023006 | 73 | 58 | 1.0 | 3.0 | 0.00 | 0.00 | 0.00 | 72 | 1016.3 |
| 20260505022504 | 73 | 102 | 0.0 | 2.0 | 0.00 | 0.00 | 0.00 | 71 | 1016.2 |
| 20260505022004 | 73 | 103 | 0.0 | 3.0 | 0.00 | 0.00 | 0.00 | 71 | 1016.1 |
| 20260505021504 | 74 | 86 | 2.0 | 5.0 | 0.00 | 0.00 | 0.00 | 72 | 1016.1 |
| 20260505021003 | 74 | 123 | 1.0 | 3.0 | 0.00 | 0.00 | 0.00 | 71 | 1016.1 |
| 20260505020504 | 74 | 148 | 0.0 | 3.0 | 0.00 | 0.00 | 0.00 | 71 | 1016.0 |
| 20260505020006 | 74 | 78 | 3.0 | 5.0 | 0.00 | 0.00 | 0.00 | 71 | 1015.9 |
| 20260505015503 | 74 | 80 | 0.0 | 3.0 | 0.00 | 0.00 | 0.00 | 71 | 1015.9 |
| 20260505015004 | 74 | 80 | 1.0 | 3.0 | 0.00 | 0.00 | 0.00 | 71 | 1015.9 |
| 20260505014504 | 74 | 84 | 0.0 | 2.0 | 0.00 | 0.00 | 0.00 | 71 | 1015.8 |
| 20260505014004 | 74 | 84 | 1.0 | 7.0 | 0.00 | 0.00 | 0.00 | 72 | 1015.8 |
| 20260505013503 | 74 | 83 | 6.0 | 9.0 | 0.00 | 0.00 | 0.00 | 71 | 1015.8 |
| 20260505013006 | 74 | 86 | 1.0 | 7.0 | 0.00 | 0.00 | 0.00 | 71 | 1015.7 |
| 20260505012504 | 75 | 105 | 1.0 | 2.0 | 0.00 | 0.00 | 0.00 | 70 | 1015.6 |
| 20260505012003 | 75 | 105 | 3.0 | 9.0 | 0.00 | 0.00 | 0.00 | 70 | 1015.5 |
| 20260505011504 | 75 | 111 | 3.0 | 9.0 | 0.00 | 0.00 | 0.00 | 69 | 1015.4 |
| 20260505011004 | 75 | 104 | 2.0 | 9.0 | 0.00 | 0.00 | 0.00 | 68 | 1015.3 |
| 20260505010503 | 75 | 96 | 2.0 | 5.0 | 0.00 | 0.00 | 0.00 | 68 | 1015.3 |
| 20260505010006 | 75 | 110 | 5.0 | 9.0 | 0.00 | 0.00 | 0.00 | 67 | 1015.2 |
| 20260505005503 | 76 | 115 | 2.0 | 6.0 | 0.00 | 0.00 | 0.00 | 67 | 1015.1 |
| 20260505005004 | 76 | 163 | 2.0 | 5.0 | 0.00 | 0.00 | 0.00 | 67 | 1015.1 |
| 20260505004504 | 76 | 169 | 3.0 | 7.0 | 0.00 | 0.00 | 0.00 | 67 | 1014.9 |
| 20260505004004 | 76 | 179 | 2.0 | 6.0 | 0.00 | 0.00 | 0.00 | 67 | 1014.9 |
| 20260505003503 | 76 | 121 | 2.0 | 8.0 | 0.00 | 0.00 | 0.00 | 66 | 1014.7 |
| 20260505003006 | 76 | 92 | 2.0 | 8.0 | 0.00 | 0.00 | 0.00 | 66 | 1014.7 |
| 20260505002504 | 76 | 157 | 3.0 | 8.0 | 0.00 | 0.00 | 0.00 | 66 | 1014.6 |
| 20260505002004 | 76 | 146 | 6.0 | 10.0 | 0.00 | 0.00 | 0.00 | 65 | 1014.6 |
| 20260505001504 | 76 | 141 | 5.0 | 9.0 | 0.00 | 0.00 | 0.00 | 64 | 1014.7 |
| 20260505001004 | 77 | 177 | 5.0 | 8.0 | 0.00 | 0.00 | 0.00 | 64 | 1014.5 |
| 20260505000504 | 77 | 136 | 4.0 | 8.0 | 0.00 | 0.00 | 0.00 | 63 | 1014.6 |
| 20260505000006 | 77 | 169 | 1.0 | 5.0 | 0.00 | 0.00 | 0.00 | 62 | 1014.7 |
| 20260504235504 | 77 | 110 | 4.0 | 9.0 | 0.00 | 0.00 | 0.00 | 62 | 1014.6 |
| 20260504235004 | 77 | 144 | 3.0 | 8.0 | 0.00 | 0.00 | 0.00 | 61 | 1014.4 |
| 20260504234504 | 78 | 119 | 0.0 | 7.0 | 0.00 | 0.00 | 0.00 | 60 | 1014.4 |
| 20260504234003 | 78 | 133 | 3.0 | 8.0 | 0.00 | 0.00 | 0.00 | 60 | 1014.3 |
| 20260504233504 | 78 | 132 | 2.0 | 6.0 | 0.00 | 0.00 | 0.00 | 60 | 1014.3 |
| 20260504233006 | 78 | 158 | 3.0 | 6.0 | 0.00 | 0.00 | 0.00 | 60 | 1014.2 |
| 20260504232503 | 78 | 138 | 2.0 | 5.0 | 0.00 | 0.00 | 0.00 | 59 | 1014.1 |
| 20260504232004 | 78 | 156 | 4.0 | 7.0 | 0.00 | 0.00 | 0.00 | 60 | 1014.1 |
| 20260504231504 | 78 | 109 | 1.0 | 3.0 | 0.00 | 0.00 | 0.00 | 60 | 1014.0 |
| 20260504231003 | 78 | 92 | 3.0 | 8.0 | 0.00 | 0.00 | 0.00 | 59 | 1014.0 |
| 20260504230504 | 78 | 91 | 7.0 | 12.0 | 0.00 | 0.00 | 0.00 | 59 | 1013.9 |
| 20260504230005 | 79 | 122 | 1.0 | 7.0 | 0.00 | 0.00 | 0.00 | 59 | 1013.8 |
| 20260504225504 | 79 | 137 | 4.0 | 10.0 | 0.00 | 0.00 | 0.00 | 58 | 1013.8 |
| 20260504225004 | 79 | 150 | 2.0 | 7.0 | 0.00 | 0.00 | 0.00 | 57 | 1013.7 |
| 20260504224504 | 80 | 81 | 3.0 | 13.0 | 0.00 | 0.00 | 0.00 | 57 | 1013.7 |
| 20260504224004 | 80 | 149 | 2.0 | 7.0 | 0.00 | 0.00 | 0.00 | 56 | 1013.5 |
| 20260504223504 | 80 | 160 | 6.0 | 9.0 | 0.00 | 0.00 | 0.00 | 55 | 1013.4 |
| 20260504223006 | 80 | 148 | 3.0 | 6.0 | 0.00 | 0.00 | 0.00 | 54 | 1013.3 |
| 20260504222504 | 80 | 122 | 5.0 | 7.0 | 0.00 | 0.00 | 0.00 | 54 | 1013.2 |
| 20260504222004 | 80 | 138 | 1.0 | 10.0 | 0.00 | 0.00 | 0.00 | 54 | 1013.2 |
| 20260504221503 | 80 | 116 | 2.0 | 9.0 | 0.00 | 0.00 | 0.00 | 56 | 1013.2 |
| 20260504221004 | 79 | 184 | 5.0 | 9.0 | 0.00 | 0.00 | 0.00 | 59 | 1013.1 |
| 20260504220504 | 78 | 160 | 4.0 | 9.0 | 0.00 | 0.00 | 0.00 | 64 | 1013.0 |
| 20260504220006 | 78 | 0 | 1.0 | 6.0 | 0.00 | 0.00 | 0.00 | 67 | 1012.9 |
| 20260504215504 | 78 | 277 | 3.0 | 7.0 | 0.00 | 0.00 | 0.00 | 68 | 1012.9 |
| 20260504215004 | 78 | 262 | 3.0 | 9.0 | 0.00 | 0.00 | 0.00 | 66 | 1012.9 |
| 20260504214504 | 78 | 211 | 3.0 | 7.0 | 0.00 | 0.00 | 0.00 | 66 | 1012.9 |
| 20260504214004 | 79 | 252 | 4.0 | 7.0 | 0.00 | 0.00 | 0.00 | 64 | 1012.9 |
| 20260504213504 | 80 | 194 | 2.0 | 7.0 | 0.00 | 0.00 | 0.00 | 61 | 1012.8 |
| 20260504213006 | 79 | 253 | 3.0 | 8.0 | 0.00 | 0.00 | 0.00 | 61 | 1012.7 |
| 20260504212503 | 79 | 214 | 2.0 | 9.0 | 0.00 | 0.00 | 0.00 | 61 | 1012.8 |
| 20260504212004 | 79 | 210 | 4.0 | 8.0 | 0.00 | 0.00 | 0.00 | 62 | 1012.7 |
| 20260504211504 | 79 | 226 | 3.0 | 8.0 | 0.00 | 0.00 | 0.00 | 61 | 1012.6 |
| 20260504211004 | 80 | 234 | 6.0 | 12.0 | 0.00 | 0.00 | 0.00 | 58 | 1012.6 |
| 20260504210503 | 80 | 270 | 6.0 | 14.0 | 0.00 | 0.00 | 0.00 | 62 | 1012.5 |
| 20260504210006 | 82 | 201 | 5.0 | 9.0 | 0.00 | 0.00 | 0.00 | 57 | 1012.6 |
| 20260504205503 | 83 | 217 | 6.0 | 12.0 | 0.00 | 0.00 | 0.00 | 49 | 1012.7 |
| 20260504205003 | 83 | 135 | 6.0 | 10.0 | 0.00 | 0.00 | 0.00 | 43 | 1012.7 |
| 20260504204503 | 83 | 195 | 6.0 | 12.0 | 0.00 | 0.00 | 0.00 | 42 | 1012.7 |
| 20260504204004 | 83 | 162 | 5.0 | 10.0 | 0.00 | 0.00 | 0.00 | 43 | 1012.7 |
| 20260504203504 | 83 | 121 | 5.0 | 10.0 | 0.00 | 0.00 | 0.00 | 44 | 1012.7 |
| 20260504203006 | 83 | 110 | 3.0 | 9.0 | 0.00 | 0.00 | 0.00 | 44 | 1012.8 |
| 20260504202503 | 82 | 164 | 4.0 | 12.0 | 0.00 | 0.00 | 0.00 | 44 | 1012.9 |
| 20260504202004 | 83 | 157 | 6.0 | 14.0 | 0.00 | 0.00 | 0.00 | 44 | 1012.8 |
| 20260504201504 | 83 | 164 | 4.0 | 8.0 | 0.00 | 0.00 | 0.00 | 44 | 1012.8 |
| 20260504201004 | 83 | 128 | 4.0 | 12.0 | 0.00 | 0.00 | 0.00 | 43 | 1013.0 |
| 20260504200504 | 83 | 156 | 7.0 | 13.0 | 0.00 | 0.00 | 0.00 | 43 | 1013.0 |
| 20260504200006 | 83 | 140 | 3.0 | 13.0 | 0.00 | 0.00 | 0.00 | 43 | 1013.2 |
| 20260504195504 | 83 | 170 | 5.0 | 13.0 | 0.00 | 0.00 | 0.00 | 42 | 1013.2 |
| 20260504195003 | 84 | 157 | 5.0 | 14.0 | 0.00 | 0.00 | 0.00 | 42 | 1013.2 |
| 20260504194503 | 84 | 98 | 6.0 | 13.0 | 0.00 | 0.00 | 0.00 | 41 | 1013.3 |
| 20260504194004 | 83 | 183 | 2.0 | 7.0 | 0.00 | 0.00 | 0.00 | 41 | 1013.3 |
| 20260504193504 | 83 | 172 | 8.0 | 13.0 | 0.00 | 0.00 | 0.00 | 40 | 1013.4 |
| 20260504193006 | 83 | 158 | 7.0 | 12.0 | 0.00 | 0.00 | 0.00 | 41 | 1013.5 |
| 20260504192503 | 83 | 150 | 7.0 | 12.0 | 0.00 | 0.00 | 0.00 | 40 | 1013.6 |
| 20260504192004 | 84 | 111 | 3.0 | 12.0 | 0.00 | 0.00 | 0.00 | 42 | 1013.7 |
| 20260504191503 | 84 | 107 | 6.0 | 12.0 | 0.00 | 0.00 | 0.00 | 41 | 1013.7 |
| 20260504191003 | 83 | 155 | 3.0 | 13.0 | 0.00 | 0.00 | 0.00 | 42 | 1013.8 |
| 20260504190504 | 83 | 99 | 4.0 | 12.0 | 0.00 | 0.00 | 0.00 | 42 | 1013.8 |
| 20260504190006 | 83 | 74 | 4.0 | 12.0 | 0.00 | 0.00 | 0.00 | 41 | 1013.9 |
| 20260504185504 | 83 | 92 | 9.0 | 17.0 | 0.00 | 0.00 | 0.00 | 40 | 1013.9 |
| 20260504185004 | 83 | 146 | 4.0 | 12.0 | 0.00 | 0.00 | 0.00 | 39 | 1014.0 |
| 20260504184503 | 83 | 166 | 6.0 | 12.0 | 0.00 | 0.00 | 0.00 | 38 | 1014.0 |
| 20260504184004 | 83 | 120 | 4.0 | 9.0 | 0.00 | 0.00 | 0.00 | 40 | 1014.0 |
| 20260504183504 | 83 | 202 | 2.0 | 12.0 | 0.00 | 0.00 | 0.00 | 41 | 1014.0 |
| 20260504183006 | 83 | 133 | 4.0 | 10.0 | 0.00 | 0.00 | 0.00 | 41 | 1014.1 |
| 20260504182503 | 83 | 144 | 6.0 | 10.0 | 0.00 | 0.00 | 0.00 | 40 | 1014.3 |
| 20260504182004 | 83 | 154 | 5.0 | 12.0 | 0.00 | 0.00 | 0.00 | 40 | 1014.3 |
| 20260504181503 | 83 | 166 | 5.0 | 9.0 | 0.00 | 0.00 | 0.00 | 41 | 1014.3 |
| 20260504181004 | 83 | 178 | 2.0 | 10.0 | 0.00 | 0.00 | 0.00 | 41 | 1014.4 |
| 20260504180504 | 84 | 118 | 5.0 | 16.0 | 0.00 | 0.00 | 0.00 | 40 | 1014.5 |
| 20260504180007 | 84 | 72 | 4.0 | 10.0 | 0.00 | 0.00 | 0.00 | 38 | 1014.6 |
| 20260504175503 | 84 | 80 | 4.0 | 14.0 | 0.00 | 0.00 | 0.00 | 38 | 1014.6 |
| 20260504175004 | 83 | 140 | 6.0 | 12.0 | 0.00 | 0.00 | 0.00 | 39 | 1014.6 |
| 20260504174504 | 83 | 78 | 5.0 | 9.0 | 0.00 | 0.00 | 0.00 | 39 | 1014.7 |
| 20260504174004 | 83 | 91 | 8.0 | 16.0 | 0.00 | 0.00 | 0.00 | 38 | 1014.9 |
| 20260504173504 | 83 | 137 | 3.0 | 14.0 | 0.00 | 0.00 | 0.00 | 38 | 1014.9 |
| 20260504173006 | 83 | 141 | 9.0 | 13.0 | 0.00 | 0.00 | 0.00 | 37 | 1014.9 |
| 20260504172504 | 83 | 194 | 1.0 | 7.0 | 0.00 | 0.00 | 0.00 | 40 | 1015.0 |
| 20260504172004 | 83 | 126 | 3.0 | 7.0 | 0.00 | 0.00 | 0.00 | 40 | 1015.1 |
| 20260504171503 | 83 | 89 | 4.0 | 10.0 | 0.00 | 0.00 | 0.00 | 39 | 1015.2 |
| 20260504171004 | 82 | 110 | 6.0 | 10.0 | 0.00 | 0.00 | 0.00 | 40 | 1015.3 |
| 20260504170504 | 82 | 159 | 3.0 | 10.0 | 0.00 | 0.00 | 0.00 | 42 | 1015.5 |
| 20260504151004 | 77 | 171 | 6.0 | 10.0 | 0.00 | 0.00 | 0.00 | 64 | 1016.9 |
| 20260504150504 | 77 | 152 | 5.0 | 12.0 | 0.00 | 0.00 | 0.00 | 65 | 1016.9 |
| 20260504141004 | 74 | 133 | 6.0 | 10.0 | 0.00 | 0.00 | 0.00 | 70 | 1017.4 |
| 20260504140503 | 74 | 111 | 8.0 | 13.0 | 0.00 | 0.00 | 0.00 | 70 | 1017.4 |
| 20260504130504 | 72 | 127 | 3.0 | 6.0 | 0.00 | 0.00 | 0.00 | 76 | 1017.5 |
| 20260504110503 | 67 | 46 | 2.0 | 3.0 | 0.00 | 0.00 | 0.00 | 86 | 1016.4 |
| 20260504100504 | 67 | 44 | 0.0 | 0.0 | 0.00 | 0.00 | 0.00 | 84 | 1015.8 |
| 20260504082003 | 69 | 24 | 3.0 | 5.0 | 0.00 | 0.00 | 0.00 | 84 | 1015.0 |
| 20260504081504 | 69 | 39 | 2.0 | 3.0 | 0.00 | 0.00 | 0.00 | 85 | 1015.0 |
| 20260504081004 | 69 | 39 | 1.0 | 3.0 | 0.00 | 0.00 | 0.00 | 84 | 1015.0 |
| 20260504080503 | 69 | 41 | 3.0 | 6.0 | 0.00 | 0.00 | 0.00 | 84 | 1014.9 |
| 20260504050503 | 69 | 53 | 2.0 | 3.0 | 0.00 | 0.00 | 0.00 | 86 | 1015.9 |
| 20260504050006 | 70 | 43 | 4.0 | 6.0 | 0.00 | 0.00 | 0.00 | 86 | 1016.1 |
| 20260504045503 | 69 | 40 | 3.0 | 5.0 | 0.00 | 0.00 | 0.00 | 87 | 1016.1 |
| 20260504045004 | 69 | 44 | 3.0 | 5.0 | 0.00 | 0.00 | 0.00 | 87 | 1016.1 |
| 20260504044504 | 70 | 51 | 3.0 | 3.0 | 0.00 | 0.00 | 0.00 | 87 | 1016.1 |
| 20260504044003 | 70 | 65 | 2.0 | 5.0 | 0.00 | 0.00 | 0.00 | 87 | 1016.2 |
| 20260504043504 | 70 | 92 | 1.0 | 3.0 | 0.00 | 0.00 | 0.00 | 87 | 1016.2 |
| 20260504043006 | 70 | 92 | 0.0 | 6.0 | 0.00 | 0.00 | 0.00 | 88 | 1016.2 |
| 20260504042504 | 70 | 120 | 1.0 | 6.0 | 0.00 | 0.00 | 0.00 | 88 | 1016.3 |
| 20260504042004 | 70 | 169 | 0.0 | 5.0 | 0.00 | 0.00 | 0.00 | 88 | 1016.4 |
| 20260504041503 | 70 | 120 | 3.0 | 7.0 | 0.00 | 0.00 | 0.00 | 88 | 1016.5 |
| 20260504041004 | 70 | 136 | 3.0 | 8.0 | 0.00 | 0.00 | 0.00 | 88 | 1016.6 |
| 20260504040504 | 70 | 124 | 3.0 | 7.0 | 0.00 | 0.00 | 0.00 | 88 | 1016.6 |
| 20260504040006 | 70 | 109 | 2.0 | 5.0 | 0.00 | 0.00 | 0.00 | 87 | 1016.4 |
| 20260504035504 | 70 | 109 | 3.0 | 7.0 | 0.00 | 0.00 | 0.00 | 87 | 1016.4 |
| 20260504035003 | 70 | 125 | 3.0 | 8.0 | 0.00 | 0.00 | 0.00 | 86 | 1016.4 |
| 20260504034504 | 71 | 91 | 3.0 | 9.0 | 0.00 | 0.00 | 0.00 | 85 | 1016.4 |
| 20260504034003 | 71 | 110 | 2.0 | 9.0 | 0.00 | 0.00 | 0.00 | 84 | 1016.4 |
| 20260504033504 | 71 | 103 | 6.0 | 9.0 | 0.00 | 0.00 | 0.00 | 82 | 1016.4 |
| 20260504033006 | 71 | 138 | 2.0 | 6.0 | 0.00 | 0.00 | 0.00 | 82 | 1016.4 |